Location: Grossmotten
(48.5500°N, 15.3833°E)
Time: 08:06:01
(UTC+00:00)

Cosmos 1725 Rocket - Pass Details

Date: 15 November 2019
Orbit: 962 x 990 km, 82.9° (Epoch: 13 December)

Event Time Altitude Azimuth Distance (km) Brightness Sun altitude
Rises 05:12:23 0° 196° (SSW) 3,662 7.0 -9.0°
Reaches altitude 10° 05:14:54 10° 199° (SSW) 2,722 6.3 -8.6°
Maximum altitude 05:21:07 66° 282° (WNW) 1,069 4.0 -7.6°
Drops below altitude 10° 05:27:25 10° 5° (N) 2,758 6.2 -6.6°
Sets 05:29:59 0° 8° (N) 3,713 6.9 -6.2°
